This is the latest recevied weather packets stored in our database for station/object KL4TQ. If no packets are shown the sender has not sent any weather packets the latest 10 day(s).
| Time | Temp. | Humidity | Pressure | Rain* | Wind** | Luminosity | Snow |
|---|---|---|---|---|---|---|---|
| 1777834568 | 7.78° C | 60% | 858 hPa | 0 mm | - | 741 W/m² | - |
| 1777834268 | 7.22° C | 62% | 858 hPa | 0 mm | - | 697 W/m² | - |
| 1777833968 | 6.67° C | 63% | 858 hPa | 0 mm | - | 686 W/m² | - |
| 1777833668 | 6.67° C | 64% | 857 hPa | 0 mm | - | 350 W/m² | - |
| 1777833368 | 6.11° C | 65% | 857 hPa | 0 mm | - | 563 W/m² | - |
| 1777833068 | 6.67° C | 64% | 857 hPa | 0 mm | - | 274 W/m² | - |
| 1777832768 | 6.67° C | 62% | 857 hPa | 0 mm | - | 582 W/m² | - |
| 1777832468 | 6.67° C | 63% | 857 hPa | 0 mm | - | 590 W/m² | - |
| 1777832168 | 6.67° C | 63% | 857 hPa | 0 mm | - | 304 W/m² | - |
| 1777831869 | 6.11° C | 65% | 857 hPa | 0 mm | - | 516 W/m² | - |
| 1777831569 | 6.11° C | 63% | 857 hPa | 0 mm | - | 521 W/m² | - |
| 1777831269 | 6.11° C | 65% | 857 hPa | 0 mm | - | 416 W/m² | - |
| 1777830968 | 6.11° C | 65% | 857 hPa | 0 mm | - | 469 W/m² | - |
| 1777830668 | 6.11° C | 66% | 857 hPa | 0 mm | - | 446 W/m² | - |
| 1777830368 | 6.11° C | 65% | 857 hPa | 0 mm | - | 435 W/m² | - |
| 1777830068 | 5.56° C | 66% | 857 hPa | 0 mm | - | 401 W/m² | - |
| 1777829768 | 5.56° C | 66% | 857 hPa | 0 mm | - | 432 W/m² | - |
| 1777829469 | 5.56° C | 66% | 857 hPa | 0 mm | - | 422 W/m² | - |
| 1777829168 | 5.56° C | 67% | 857 hPa | 0 mm | - | 448 W/m² | - |
| 1777828869 | 5° C | 68% | 857 hPa | 0 mm | - | 398 W/m² | - |
| 1777828569 | 5° C | 68% | 857 hPa | 0 mm | - | 369 W/m² | - |
| 1777828269 | 4.44° C | 69% | 857 hPa | 0 mm | - | 353 W/m² | - |
| 1777827968 | 4.44° C | 71% | 857 hPa | 0 mm | - | 341 W/m² | - |
| 1777827669 | 4.44° C | 71% | 857 hPa | 0 mm | - | 330 W/m² | - |
| 1777827369 | 4.44° C | 71% | 857 hPa | 0 mm | - | 318 W/m² | - |
* Rain latest hour (hover to see other rain measurements)
** Current wind speed in m/s (hover to see current wind gust speed)